SL-14 DEB

Satellite information

Favourite Embed

Satellite Type and Status

DEBRISIN ORBIT

Key statistics

Satellite SL-14 DEB at a glance.

Uptime

13838

Days in orbit

Revolutions

≈ 14.5

Per day

Orbit

LEO

Low Earth Orbit

Inclination

82.5

Latest

Satellite identification and parameters

Extended collection of information and parameters for SL-14 DEB.

Object identification

Identified? True

Debris? True

Object name: SL-14 DEB

International designator: 1987-068BE

Object number (NORAD): 25227

Object ID (CCSDS): 25227

Country: COMMONWEALTH OF INDEPENDENT STATES (CIS)

Current information (Y/N): Y

RCS size: SMALL

Orbital parameters

Period: 99.634 minutes

Inclination: 82.5206 deg

SMA: 7119.198 km

Apoapsis: 746.317 km

Periapsis: 735.809 km

RAAN: 226.3795 deg

Eccentricy: 0.000738

Argument of periapsis: 286.2038 deg

Mean anomaly: 73.8344 deg

Mean motion: 14.45293943 rev/day

Mean motion (dot): 0.00005244 rev/day2

B* drag term: 0.0014889 1/REarth

Two-line elements (TLE)

Creation date: July 6, 2025, 6:05 p.m.

Reference frame: TEME

Reference center: EARTH

Epoch: July 6, 2025, 7:30 a.m. UTC

TLE line 0: 0 SL-14 DEB

TLE line 1: 1 25227U 87068BE 25187.31271380 .00005244 00000-0 14889-2 0 9992

TLE line 2: 2 25227 82.5206 226.3795 0007380 286.2038 73.8344 14.45293943406850

Live tracking on map

Real-time ground track for satellite SL-14 DEB.

In-orbit conjunctions

A list of the most updated potential collisions computed for object SL-14 DEB.

Target Orbit TCA Probability of collision Miss distance Type
CZ-4 DEB SSO 2025-04-05 01:00:21 0.0003141169 71.0 (m) DEBRIS
OSCAR 17 (DOVE) SSO 2024-10-09 01:18:39 0.0002569537 375.0 (m) PAYLOAD
CZ-6A DEB LEO 2024-10-06 22:57:23 0.0002879952 801.0 (m) DEBRIS
NOAA 16 DEB SSO 2024-08-02 15:26:53 0.0001240862 166.0 (m) DEBRIS
FENGYUN 1C DEB SSO 2024-07-14 21:27:11 0.0001155337 106.0 (m) DEBRIS

Associated space launch

Second generation soviet meteorological satellite

SL-14 DEB was lifted into orbit during the mission ‘Tsiklon-3 | Meteor-2 16’, on board a Tsiklon-3 space rocket.

The launch took place on Aug. 18, 1987, 2:27 a.m. from 32/1.

For more information about the launch, click the button.

Launch to space Tsiklon-3 | Meteor-2 16
Tsiklon-3 | Meteor-2 16

Agency: N/A

Status: Launch Successful

Launch date: Aug. 18, 1987, 2:27 a.m. UTC

Rocket: Tsiklon-3

Launch pad: 32/1

Location: Plesetsk Cosmodrome, Russian Federation

...

Latest news about this satellite

There are no fresh news available about this satellite. Check back as we update our databases every day.


Newsletter sign-up

Weekly statistics, charts and insights to help you stay on top of the space industry.